Glens Falls, NY

10:39 AM EST on November 12, 2019 (GMT -0500)
Bennett Memorial

Weather History for KGFL - October, 2019

Change the Weather History Date:

Tuesday, October 22, 2019

  Actual Average Record
Temperature  
Mean Temperature 48 °F 44 °F  
Max Temperature 57 °F 56 °F 81 °F (1979)
Min Temperature 38 °F 33 °F 20 °F (1959)
Degree Days  
Heating Degree Days 17 20  
Month to date heating degree days 351 372  
Since 1 July heating degree days 573 657  
Cooling Degree Days 0 0  
Month to date cooling degree days 0 0  
Year to date cooling degree days 416 351  
Moisture  
Dew Point 46 °F    
Average Humidity 81    
Maximum Humidity 100    
Minimum Humidity 62    
Precipitation  
Precipitation 0.61 in 0.11 in 1.06 in (1970)
Month to date precipitation 5.15 2.51  
Year to date precipitation 36.00 31.70  
Sea Level Pressure  
Sea Level Pressure 29.98 in    
Wind  
Wind Speed 2 mph (ENE)    
Max Wind Speed 9 mph    
Max Gust Speed 14 mph    
Visibility 7 miles    
Events Rain    
T = Trace of Precipitation, MM = Missing Value Source: NWS Daily Summary

Daily Weather History Graph

Daily Weather History Graph

Search for Another Location

Airport or City:

Astronomy

Oct. 22, 2019 Rise Set
Actual Time 7:16 AM EDT 6:00 PM EDT
Civil Twilight 6:47 AM EDT 6:29 PM EDT
Nautical Twilight 6:14 AM EDT 7:02 PM EDT
Astronomical Twilight 5:41 AM EDT 7:35 PM EDT
Moon 12:09 AM EDT (10/22) 3:21 PM EDT (10/22)
Length of Visible Light 11h 42m
Length of Day
10h 43m
Last Quarter, 37% of the Moon is Illuminated
Oct 22
Last Quarter
Oct 27
New
Nov 4
First Quarter
Nov 12
Full
Nov 19
Last Quarter

Hourly Weather History & Observations

Time (EDT) Temp. Windchill Dew Point Humidity Pressure Visibility Wind Dir Wind Speed Gust Speed Precip Events Conditions
12:02 AM 37.9 °F - 37.0 °F 97% 30.13 in 3.0 mi Calm Calm - N/A   Clear
12:05 AM 37.9 °F - 37.0 °F 97% 30.13 in 1.8 mi Calm Calm - N/A   Clear
12:18 AM 37.9 °F - 37.0 °F 97% 30.12 in 3.0 mi Calm Calm - N/A   Clear
12:53 AM 39.0 °F 36.8 °F 37.0 °F 93% 30.14 in 9.0 mi WNW 3.5 mph - N/A   Clear
1:53 AM 39.9 °F - 37.9 °F 93% 30.13 in 7.0 mi Calm Calm - N/A   Clear
2:53 AM 39.9 °F - 39.0 °F 97% 30.11 in 8.0 mi Calm Calm - N/A   Clear
3:53 AM 39.9 °F - 39.0 °F 97% 30.10 in 8.0 mi Calm Calm - N/A   Clear
4:53 AM 43.0 °F 40.3 °F 42.1 °F 97% 30.11 in 10.0 mi NNE 4.6 mph - N/A   Clear
5:53 AM 42.1 °F - 41.0 °F 96% 30.09 in 7.0 mi Calm Calm - N/A   Clear
6:53 AM 43.0 °F - 41.0 °F 93% 30.09 in 9.0 mi Calm Calm - N/A   Clear
7:53 AM 42.1 °F - 41.0 °F 96% 30.11 in 6.0 mi Calm Calm - N/A   Clear
8:53 AM 46.0 °F 44.8 °F 44.1 °F 93% 30.09 in 10.0 mi ENE 3.5 mph - N/A   Clear
9:53 AM 50.0 °F - 46.0 °F 86% 30.08 in 10.0 mi Calm Calm - N/A   Mostly Cloudy
10:53 AM 54.0 °F - 46.9 °F 77% 30.07 in 10.0 mi Variable 3.5 mph - N/A   Overcast
11:53 AM 54.0 °F - 44.1 °F 69% 30.05 in 10.0 mi SSE 3.5 mph - N/A   Overcast
12:53 PM 55.0 °F - 44.1 °F 67% 30.02 in 10.0 mi East 3.5 mph - N/A   Overcast
1:53 PM 55.0 °F - 44.1 °F 67% 30.01 in 10.0 mi Calm Calm - N/A   Overcast
2:53 PM 55.9 °F - 44.1 °F 64% 29.96 in 10.0 mi Calm Calm - N/A   Overcast
3:53 PM 55.9 °F - 44.1 °F 64% 29.94 in 10.0 mi Calm Calm - N/A   Overcast
4:53 PM 57.0 °F - 45.0 °F 64% 29.92 in 10.0 mi Calm Calm - N/A   Overcast
5:53 PM 55.0 °F - 46.9 °F 74% 29.92 in 10.0 mi WNW 3.5 mph - 0.00 in   Overcast
6:53 PM 54.0 °F - 50.0 °F 86% 29.93 in 10.0 mi Calm Calm - 0.00 in   Overcast
7:53 PM 53.1 °F - 51.1 °F 93% 29.93 in 5.0 mi Calm Calm - 0.03 in Rain Light Rain
8:41 PM 53.1 °F - 52.0 °F 96% 29.87 in 4.0 mi Calm Calm - 0.12 in Rain Light Rain
8:53 PM 53.1 °F - 52.0 °F 96% 29.88 in 5.0 mi Calm Calm - 0.13 in Rain Light Rain
9:30 PM 53.1 °F - 52.0 °F 96% 29.89 in 2.0 mi West 4.6 mph - 0.11 in Rain Heavy Rain
9:37 PM 54.0 °F - 52.0 °F 93% 29.87 in 1.8 mi Calm Calm - 0.15 in Rain Heavy Rain
9:43 PM 54.0 °F - 52.0 °F 93% 29.87 in 2.0 mi Calm Calm - 0.17 in Rain Rain
9:47 PM 53.6 °F - 51.8 °F 94% 29.86 in 3.0 mi ESE 3.5 mph - 0.19 in Rain Rain
9:53 PM 54.0 °F - 52.0 °F 93% 29.87 in 4.0 mi ESE 4.6 mph - 0.21 in Rain Rain
10:45 PM 53.1 °F - 52.0 °F 96% 29.84 in 3.0 mi East 4.6 mph - 0.08 in Rain Light Rain
10:53 PM 53.1 °F - 52.0 °F 96% 29.85 in 3.0 mi East 4.6 mph - 0.09 in Rain Light Rain
11:27 PM 53.1 °F - 52.0 °F 96% 29.81 in 4.0 mi ENE 3.5 mph - 0.03 in Rain Light Rain
11:34 PM 53.1 °F - 52.0 °F 96% 29.81 in 5.0 mi Calm Calm - 0.03 in Rain Light Rain
11:53 PM 53.1 °F - 52.0 °F 96% 29.80 in 8.0 mi Calm Calm - 0.04 in   Overcast